• In Belarus
  • List of Countries
  • For 7 days
  • Water Temperature
  • Satellite Maps
  • Weather Map
  • Weather Widgets
  • user-avatar
    Login

    Hourly Weather Astrahan'

    Today, 22 September, Saturday

    Time Temperature Precipitation Wind Pressure Humidity
    00:00 +21°C° 0 mm 3 mps 761 mmHg 58%
    01:00 +20°C° 0 mm 3 mps 761 mmHg 60%
    02:00 +20°C° 0 mm 3 mps 762 mmHg 63%
    03:00 +19°C° 0 mm 3 mps 762 mmHg 67%
    04:00 +18°C° 0 mm 3 mps 762 mmHg 68%
    05:00 +18°C° 0 mm 3 mps 763 mmHg 69%
    06:00 +18°C° 0 mm 4 mps 763 mmHg 70%
    07:00 +20°C° 0 mm 4 mps 763 mmHg 62%
    08:00 +21°C° 0 mm 4 mps 763 mmHg 53%
    09:00 +23°C° 0 mm 5 mps 764 mmHg 46%
    10:00 +25°C° 0 mm 5 mps 764 mmHg 42%
    11:00 +26°C° 0 mm 5 mps 764 mmHg 38%
    12:00 +27°C° 0 mm 4 mps 764 mmHg 34%
    13:00 +27°C° 0 mm 5 mps 764 mmHg 33%
    14:00 +27°C° 0 mm 5 mps 764 mmHg 33%
    15:00 +27°C° 0 mm 5 mps 763 mmHg 32%
    16:00 +25°C° 0 mm 5 mps 763 mmHg 37%
    17:00 +22°C° 0 mm 4 mps 763 mmHg 42%
    18:00 +20°C° 0 mm 4 mps 763 mmHg 46%
    19:00 +19°C° 0 mm 4 mps 763 mmHg 51%
    20:00 +18°C° 0 mm 3 mps 764 mmHg 55%
    21:00 +17°C° 0 mm 3 mps 764 mmHg 59%
    22:00 +17°C° 0 mm 3 mps 764 mmHg 60%
    23:00 +17°C° 0 mm 3 mps 763 mmHg 60%

    Tomorrow, 23 September, Sunday

    Time Temperature Precipitation Wind Pressure Humidity
    00:00 +16°C° 0 mm 2 mps 763 mmHg 60%
    01:00 +16°C° 0 mm 3 mps 763 mmHg 60%
    02:00 +16°C° 0 mm 3 mps 763 mmHg 60%
    03:00 +14°C° 0 mm 3 mps 763 mmHg 60%
    04:00 +14°C° 0 mm 3 mps 763 mmHg 61%
    05:00 +14°C° 0 mm 3 mps 763 mmHg 61%
    06:00 +14°C° 0 mm 4 mps 763 mmHg 62%
    07:00 +18°C° 0 mm 4 mps 763 mmHg 53%
    08:00 +20°C° 0 mm 5 mps 763 mmHg 44%
    09:00 +23°C° 0 mm 5 mps 763 mmHg 35%
    10:00 +25°C° 0 mm 5 mps 763 mmHg 32%
    11:00 +26°C° 0 mm 5 mps 762 mmHg 30%
    12:00 +27°C° 0 mm 6 mps 762 mmHg 28%
    13:00 +27°C° 0 mm 5 mps 762 mmHg 29%
    14:00 +27°C° 0 mm 5 mps 761 mmHg 30%
    15:00 +26°C° 0 mm 5 mps 761 mmHg 31%
    16:00 +25°C° 0 mm 5 mps 761 mmHg 36%
    17:00 +22°C° 0 mm 4 mps 761 mmHg 42%
    18:00 +20°C° 0 mm 4 mps 760 mmHg 47%
    19:00 +20°C° 0 mm 4 mps 760 mmHg 52%
    20:00 +19°C° 0 mm 3 mps 761 mmHg 57%
    21:00 +18°C° 0 mm 3 mps 761 mmHg 62%
    22:00 +18°C° 0 mm 3 mps 760 mmHg 63%
    23:00 +18°C° 0 mm 3 mps 760 mmHg 65%

    Day after tomorrow, 24 September, Monday

    Time Temperature Precipitation Wind Pressure Humidity
    00:00 +18°C° 0 mm 3 mps 760 mmHg 66%
    01:00 +18°C° 0 mm 3 mps 760 mmHg 66%
    02:00 +18°C° 0 mm 3 mps 759 mmHg 67%
    03:00 +18°C° 0 mm 2 mps 759 mmHg 67%
    04:00 +18°C° 0 mm 3 mps 759 mmHg 69%
    05:00 +19°C° 0 mm 3 mps 759 mmHg 71%
    06:00 +19°C° 0 mm 3 mps 759 mmHg 73%
    07:00 +20°C° 0.3 mm 3 mps 759 mmHg 68%
    08:00 +22°C° 0.3 mm 4 mps 759 mmHg 64%
    09:00 +23°C° 0.3 mm 5 mps 760 mmHg 60%
    10:00 +25°C° 0 mm 5 mps 760 mmHg 53%
    11:00 +26°C° 0 mm 5 mps 760 mmHg 47%
    12:00 +27°C° 0 mm 6 mps 760 mmHg 41%
    13:00 +27°C° 0 mm 6 mps 760 mmHg 37%
    14:00 +27°C° 0 mm 6 mps 760 mmHg 34%
    15:00 +26°C° 0 mm 6 mps 760 mmHg 31%
    16:00 +25°C° 0 mm 5 mps 760 mmHg 32%
    17:00 +22°C° 0 mm 4 mps 760 mmHg 32%
    18:00 +21°C° 0 mm 3 mps 760 mmHg 32%
    19:00 +20°C° 0 mm 3 mps 760 mmHg 34%
    20:00 +19°C° 0 mm 2 mps 761 mmHg 35%
    21:00 +18°C° 0 mm 2 mps 761 mmHg 36%
    22:00 +18°C° 0 mm 2 mps 760 mmHg 38%
    23:00 +17°C° 0 mm 2 mps 760 mmHg 40%

    25 September, Tuesday

    Time Temperature Precipitation Wind Pressure Humidity
    00:00 +18°C° 0 mm 1 mps 760 mmHg 42%
    01:00 +16°C° 0 mm 1 mps 760 mmHg 43%
    02:00 +16°C° 0 mm 2 mps 760 mmHg 44%
    03:00 +16°C° 0 mm 2 mps 760 mmHg 45%
    04:00 +16°C° 0 mm 2 mps 760 mmHg 46%
    05:00 +16°C° 0 mm 2 mps 760 mmHg 47%
    06:00 +16°C° 0 mm 2 mps 760 mmHg 47%
    07:00 +18°C° 0 mm 2 mps 760 mmHg 43%
    08:00 +21°C° 0 mm 3 mps 760 mmHg 38%
    09:00 +24°C° 0 mm 3 mps 760 mmHg 33%
    10:00 +25°C° 0 mm 3 mps 760 mmHg 32%
    11:00 +27°C° 0 mm 3 mps 759 mmHg 32%
    12:00 +28°C° 0 mm 4 mps 759 mmHg 32%
    13:00 +28°C° 0 mm 4 mps 759 mmHg 32%
    14:00 +28°C° 0 mm 4 mps 758 mmHg 33%
    15:00 +28°C° 0 mm 5 mps 758 mmHg 33%
    16:00 +27°C° 0 mm 4 mps 758 mmHg 38%
    17:00 +25°C° 0 mm 4 mps 758 mmHg 43%
    18:00 +22°C° 0 mm 4 mps 758 mmHg 48%
    19:00 +22°C° 0 mm 3 mps 758 mmHg 51%
    20:00 +21°C° 0 mm 3 mps 759 mmHg 55%
    21:00 +20°C° 0 mm 3 mps 759 mmHg 58%
    22:00 +20°C° 0 mm 2 mps 759 mmHg 61%
    23:00 +19°C° 0 mm 2 mps 759 mmHg 63%

    26 September, Wednesday

    Time Temperature Precipitation Wind Pressure Humidity
    00:00 +19°C° 0 mm 2 mps 759 mmHg 66%
    01:00 +18°C° 0 mm 2 mps 759 mmHg 67%
    02:00 +18°C° 0 mm 3 mps 759 mmHg 68%
    03:00 +18°C° 0 mm 4 mps 759 mmHg 68%
    04:00 +17°C° 0 mm 4 mps 760 mmHg 67%
    05:00 +16°C° 0 mm 5 mps 760 mmHg 66%
    06:00 +15°C° 0 mm 5 mps 760 mmHg 65%
    07:00 +16°C° 0 mm 5 mps 760 mmHg 60%
    08:00 +19°C° 0 mm 6 mps 761 mmHg 54%
    09:00 +20°C° 0 mm 6 mps 761 mmHg 49%
    10:00 +20°C° 0 mm 7 mps 762 mmHg 49%
    11:00 +20°C° 0 mm 7 mps 762 mmHg 50%
    12:00 +20°C° 0 mm 8 mps 762 mmHg 50%
    13:00 +18°C° 0.1 mm 8 mps 762 mmHg 54%
    14:00 +17°C° 0.1 mm 8 mps 762 mmHg 58%
    15:00 +16°C° 0.1 mm 8 mps 763 mmHg 62%
    16:00 +15°C° 0.2 mm 8 mps 763 mmHg 66%
    17:00 +13°C° 0.2 mm 8 mps 764 mmHg 70%
    18:00 +12°C° 0.2 mm 7 mps 764 mmHg 74%
    19:00 +12°C° 0.1 mm 7 mps 765 mmHg 73%
    20:00 +13°C° 0.1 mm 6 mps 765 mmHg 71%
    21:00 +13°C° 0.1 mm 6 mps 766 mmHg 70%
    22:00 +13°C° 0 mm 5 mps 766 mmHg 70%
    23:00 +13°C° 0 mm 5 mps 766 mmHg 70%

    27 September, Thursday

    Time Temperature Precipitation Wind Pressure Humidity
    00:00 +13°C° 0 mm 5 mps 766 mmHg 70%
    01:00 +13°C° 0 mm 4 mps 766 mmHg 70%
    02:00 +13°C° 0 mm 4 mps 766 mmHg 70%
    03:00 +13°C° 0 mm 4 mps 767 mmHg 70%
    04:00 +13°C° 0 mm 4 mps 767 mmHg 68%
    05:00 +12°C° 0 mm 3 mps 767 mmHg 66%
    06:00 +12°C° 0 mm 3 mps 767 mmHg 65%
    07:00 +13°C° 0 mm 4 mps 767 mmHg 56%
    08:00 +15°C° 0 mm 4 mps 767 mmHg 48%
    09:00 +17°C° 0 mm 4 mps 768 mmHg 39%
    10:00 +18°C° 0 mm 4 mps 767 mmHg 35%
    11:00 +18°C° 0 mm 4 mps 767 mmHg 32%
    12:00 +19°C° 0 mm 4 mps 767 mmHg 28%
    13:00 +19°C° 0 mm 4 mps 767 mmHg 26%
    14:00 +20°C° 0 mm 4 mps 766 mmHg 25%
    15:00 +20°C° 0 mm 4 mps 766 mmHg 23%
    16:00 +18°C° 0 mm 3 mps 766 mmHg 25%
    17:00 +17°C° 0 mm 3 mps 766 mmHg 27%
    18:00 +16°C° 0 mm 2 mps 766 mmHg 28%
    19:00 +15°C° 0 mm 2 mps 766 mmHg 30%
    20:00 +14°C° 0 mm 2 mps 766 mmHg 32%
    21:00 +14°C° 0 mm 2 mps 766 mmHg 33%
    22:00 +13°C° 0 mm 1 mps 766 mmHg 34%
    23:00 +13°C° 0 mm 1 mps 766 mmHg 35%
    Show more